Regional Weather Roundup
Issued by NWS

Home | Current Version | Previous Version | Text Only | Print | Product List | Glossary On
Versions: 1 2 3 4 5 6 7 8 9 10 11 12 13 14 15 16 17 18 19 20 21 22 23 24 25 26 27 28 29 30 31 32 33 34 35 36 37 38 39 40 41 42 43 44 45 46 47 48 49 50
000
ASUS43 KDTX 202210
RWRMI
MICHIGAN HOURLY REGIONAL WEATHER ROUNDUP
NATIONAL WEATHER SERVICE DETROIT/PONTIAC MI
600 PM EDT SAT SEP 20 2014

NOTE: "FAIR" INDICATES FEW OR NO CLOUDS BELOW 12,000 FEET WITH NO
SIGNIFICANT WEATHER AND/OR OBSTRUCTION TO VISIBILITY.

MIZ047>049-052>055-059>063-066>070-074>076-081>083-202300-
SOUTHEAST LOWER MICHIGAN

CITY           SKY/WX    TMP DP  RH WIND       PRES   REMARKS
ADRIAN         PTSUNNY   78  61  55 SW15      29.83F
ALMA           CLOUDY    71  65  80 SW12G18   29.75S
ANN ARBOR      PTSUNNY   72  64  76 SW7       29.82F
BAD AXE        MOSUNNY   75  65  70 SW12G17   29.73F
CARO           PTSUNNY   75  65  70 SW8       29.73F
DETROIT CITY   PTSUNNY   78  60  53 SW17      29.80F
DETROIT        LGT RAIN  73  64  73 S10       29.81F
FLINT          MOSUNNY   78  63  59 SW16G26   29.76F
GROSSE ILE     PTSUNNY   77  61  57 SW9       29.81S
HILLSDALE      RAIN      72  68  87 NW3       29.84S
HOWELL         RAIN      73  63  71 S15G23    29.79S

CITY           SKY/WX    TMP DP  RH WIND       PRES   REMARKS
JACKSON        HVY RAIN  68  66  93 S10       29.83S FOG
LAMBERTVILLE   MOSUNNY   79  59  50 SW9       29.84S
LANSING        CLOUDY    75  64  68 SW14G25   29.77F
LAPEER         FAIR      75  61  61 SW12G23   29.76F
MASON          CLOUDY    73  64  73 S6        29.80S
MONROE         PTSUNNY   79  59  50 SW7       29.81S
MT. CLEMENS    PTSUNNY   78  62  58 SW15      29.77F
PONTIAC        CLOUDY    75  61  61 S13G28    29.79F
PORT HOPE        N/A     76  62  62 SW7       29.71S
PORT HURON     PTSUNNY   75  64  69 S14       29.77F
TRI CITIES     LGT RAIN  70  65  84 W20       29.74R
TROY           PTSUNNY   78  60  54 SW9G22    29.82S
SAGINAW HB     PTSUNNY   77  63  61 SW12G18   29.72F
$$
MIZ043>046-050>051-056>058-064>065-071>073-077>080-202300-
SOUTHWEST LOWER MICHIGAN

CITY           SKY/WX    TMP DP  RH WIND       PRES   REMARKS
BATTLE CREEK   LGT RAIN  70  66  87 SW8       29.81F
BENTON HARBOR  CLOUDY    70  66  87 W10       29.81R
BIG RAPIDS     CLOUDY    66  65  98 SW10G20   29.75S FOG
COLDWATER      HVY RAIN  70  68  93 W12       29.84S
FREMONT        RAIN      66  64  95 SW15G21   29.76R
HOLLAND        RAIN      69  66  90 W18G26    29.81R FOG
GRAND RAPIDS   LGT RAIN  70  67  90 W15       29.79R
IONIA          MOCLDY    73  66  80 SW18G29   29.76S
KALAMAZOO      LGT RAIN  70  67  90 SW10      29.81F FOG
LUDINGTON      CLOUDY    66  64  93 SW10G16   29.72F
MARSHALL       RAIN      68  66  93 SW5       29.81F
MOUNT PLEASANT CLOUDY    69  66  92 W10G20    29.74F
MUSKEGON       RAIN      67  63  87 S12       29.74F FOG
SOUTH HAVEN    LGT RAIN  69  65  88 W14G23    29.82R
$$
MIZ016>042-202300-
NORTHERN LOWER MICHIGAN

CITY           SKY/WX    TMP DP  RH WIND       PRES   REMARKS
ALPENA         CLOUDY    66  63  90 SW6       29.67R
BEAVER ISLAND  CLOUDY    65  62  91 SW6       29.65S
BELLAIRE       RAIN      67  63  86 SW3       29.67S
CADILLAC       CLOUDY    64  64  97 SW12      29.73S
CHARLEVOIX     CLOUDY    68  64  88 SW12      29.67S
FRANKFORT      LGT RAIN  65  62  87 SW8       29.68F
GAYLORD        LGT RAIN  65  62  90 SW9       29.68F
GRAYLING       CLOUDY    69  68  95 SW7       29.71S
HARBOR SPRINGS CLOUDY    68  62  83 SW7       29.63F
HOUGHTON LAKE  CLOUDY    65  63  93 SW8       29.72F
MANISTEE       CLOUDY    66  63  88 S7        29.70F
OSCODA         LGT RAIN  70  64  82 SW13      29.68S
PELLSTON       LGT RAIN  68  63  84 W8G20     29.64S
ROGERS CITY    PTSUNNY   69  64  85 SW12G21   29.64F
TRAVERSE CITY  LGT RAIN  69  63  81 SW10G22   29.67R
$$
MIZ007>008-015-202300-
EASTERN UPPER MICHIGAN

CITY           SKY/WX    TMP DP  RH WIND       PRES   REMARKS
KINROSS        CLOUDY    64  64 100 W3        29.62S
MACKINAC ISLAN CLOUDY    63  62  96 SW14G21   29.63S
NEWBERRY       CLOUDY    65  59  80 W16G24    29.64R
S. S. MARIE    CLOUDY    64  60  87 W7        29.62R
MUNISING         N/A     63  55  75 N14       29.67R
$$
MIZ004>006-011>014-085-202300-
CENTRAL UPPER MICHIGAN

CITY           SKY/WX    TMP DP  RH WIND       PRES   REMARKS
MANISTIQUE     CLOUDY    68  60  75 N9        29.64R
ESCANABA       PTSUNNY   73  52  46 W13G24    29.64R
MENOMINEE      MOSUNNY   75  57  53 N7        29.63S
SAWYER-GWINN   PTSUNNY   68  55  64 NW9       29.67R
$$
MIZ001>003-009>011-084-202300-
WESTERN UPPER MICHIGAN

CITY           SKY/WX    TMP DP  RH WIND       PRES   REMARKS
IRON MOUNTAIN  SUNNY     69  53  56 NW12      29.66S
HOUGHTON       LGT RAIN  56  53  90 NW8       29.68S
COPPER HARBOR    N/A     55  50  83 N10       29.67R
IRONWOOD       MOSUNNY   63  54  72 W10       29.70R
$$

ABBREVIATIONS USED IN REMARKS
   TC - TEMPERATURE IN CELSIUS
  WCI - WIND CHILL INDEX
   HX - HEAT INDEX
  VSB - VISIBILITY



USA.gov is the U.S. government's official web portal to all federal, state and local government web resources and services.